一网星座-0621星 (ONEWEB-0621)

导读

ONEWEB-0621是英国一网公司(OneWeb)低轨卫星互联网星座的成员,于2023年1月10日发射升空。该卫星运行在1200公里高度的近地轨道,属于OneWeb卫星星座组网卫星,依托Ku波段提供全球高速低延迟卫星互联网接入服务。卫星重量约175-200千克,配合地面相控阵终端可实现50Mbps网络连接,服务全球偏远地区通信、物联网连接等场景,助力OneWeb完成全球卫星互联网星座的部署,推动全球无缝网络覆盖建设。

基本信息
目录编号:
55162
目录名称:
ONEWEB-0621
国际标识:
2023-004Y
轨道中心:
EARTH
卫星名称:
一网星座-0621星
卫星全名:
一网星座-0621星 (ONEWEB-0621)
卫星状态:
在轨 (已飞行1258 天)
发射日期:
2023-01-10 UTC
国别 :
英国 (GB)
星等 :
--
轨道信息
数据来源 国际轨道数据 AOE轨道数据
星历时间 2026-06-20T15:02:39+0800
1天前
查看轨道信息
2026-06-19T09:00:00+0800
2天前
查看轨道信息
半长轴 7595.829km 7595.824km
偏心率 0.0001992 0.0002781
轨道倾角 87.889° 87.891°
近地点辐角 81.433° 79.314°
升交点赤经 20.448° 20.695°
平近点角 278.703° 134.151°
近地点 1216.178km 1215.574km
远地点 1219.206km 1219.8km
周期 109.805分钟 109.805分钟
每日圈数 13.114146 13.114159
详细信息
平衡模式:
三轴稳定
覆盖范围:
全球
运营商:
一网卫星公司
运营商所在国:
英国
制造商(研发单位):
一网卫星公司
制造商所在国:
英国
使用方式:
暂无
卫星简介
OneWeb卫星网络由648颗重约125公斤的微型卫星组成,运行在1200公里的轨道上。 每颗卫星都能够提供至少每秒8千兆位的吞吐量,以使用其高吞吐量的Ku频段有效载荷为家庭和移动平台提供互联网接入。该卫星仍在工作。
2D轨道图
3D轨道图
轨道高度分析图
轨道倾角分析图
轨道综合分析图
查看轨道综合分析图